Home > Weather > Nicosia > Past weeks

Flag for Cyprus Weather for the Past 2 Weeks in Nicosia, Cyprus

Now
45 °F

Fog.


Feels Like: 42 °F
Forecast: 46 / 69 °F
Wind: 5 mph from Southwest

Location: Ercan

Current Time: Feb 13, 2016 at 4:51:58 AM

Latest Report: Feb 13, 2016 at 3:50 AM


Visibility: 0 mi

Pressure: 30.15 "Hg

Humidity: 100%

Dew point: 45 °F

Location of NicosiaLocation

Historic Weather in Nicosia — Graph

°F

Nicosia Temperature Yesterday

Maximum temperature yesterday: 68 °F (at 12:20 PM)
Minimum temperature yesterday: 43 °F (at 6:20 AM)
Average temperature yesterday: 54 °F

High & Low Weather Summary for the Past Weeks

 TemperatureHumidityPressure
High70 °F (Feb 2, 1:50 PM)100% (Feb 13, 1:20 AM)30.39 "Hg (Feb 13, 1:20 AM)
Low36 °F (Feb 8, 3:20 AM)30% (Feb 2, 1:20 PM)29.74 "Hg (Feb 6, 1:50 PM)
Average52 °F72%30.16 "Hg
* Reported Jan 29 2:20 AM — Feb 13 2:50 AM, Nicosia, Weather by CustomWeather, © 2016

Note: Actual official high and low records may vary slightly from our data, if they occured in-between our weather recording intervals... More about our weather records

Advertising

Nicosia Weather History for the Previous 24 Hours

 ConditionsComfort  
Time TempWeatherWind HumidityBarometerVisibility
2:50 AM
Sat, Feb 13
46 °FFog.5 mph100%30.15 "Hg0 mi
2:20 AM48 °FFog.5 mph100%30.15 "Hg0 mi
1:50 AM46 °FFog.5 mph100%30.15 "Hg0 mi
1:20 AM50 °FFog.3 mph100%30.18 "Hg0 mi
12:50 AM48 °FFog.3 mph94%30.18 "Hg0 mi
11:50 PM
Fri, Feb 12
46 °FFog.5 mph93%30.18 "Hg0 mi
11:20 PM48 °FFog.No wind94%30.18 "Hg1 mi
10:50 PM50 °FFog.3 mph94%30.18 "Hg0 mi
10:20 PM50 °FFog.5 mph94%30.18 "Hg1 mi
10:00 PM50 °FFog.5 mph94%30.18 "Hg0 mi
9:45 PM52 °FFog.No wind94%30.18 "Hg0 mi
9:20 PM52 °FFog.3 mph94%30.18 "Hg2 mi
8:50 PM52 °FFog.5 mph94%30.18 "Hg2 mi
8:20 PM54 °FFog.No wind88%30.18 "Hg2 mi
7:50 PM54 °FFog.6 mph88%30.18 "Hg3 mi
7:20 PM55 °FPassing clouds.3 mph82%30.18 "HgN/A
6:50 PM57 °FPassing clouds.5 mph77%30.15 "HgN/A
6:20 PM59 °FPassing clouds.8 mph77%30.15 "HgN/A
5:50 PM59 °FPassing clouds.9 mph77%30.15 "HgN/A
5:20 PM61 °FScattered clouds.9 mph77%30.15 "HgN/A
4:50 PM63 °FScattered clouds.13 mph73%30.15 "HgN/A
4:20 PM64 °FScattered clouds.13 mph68%30.12 "HgN/A
3:50 PM64 °FScattered clouds.15 mph68%30.12 "HgN/A
3:20 PM66 °FScattered clouds.14 mph60%30.12 "HgN/A
2:50 PM68 °FScattered clouds.15 mph56%30.12 "HgN/A
2:20 PM68 °FScattered clouds.14 mph60%30.12 "HgN/A
1:50 PM66 °FScattered clouds.9 mph64%30.12 "HgN/A
1:20 PM68 °FScattered clouds.5 mph49%30.15 "HgN/A
12:50 PM68 °FScattered clouds.5 mph46%30.15 "HgN/A
12:20 PM68 °FPassing clouds.6 mph46%30.15 "HgN/A
11:50 AM66 °FScattered clouds.No wind46%30.18 "HgN/A
11:20 AM64 °FScattered clouds.3 mph56%30.18 "HgN/A
10:50 AM63 °FScattered clouds.No wind68%30.21 "HgN/A
10:20 AM59 °FPartly sunny.No wind82%30.21 "HgN/A
9:50 AM55 °FPartly sunny.No wind94%30.21 "HgN/A
9:20 AM52 °FPartly sunny.No wind94%30.21 "HgN/A
8:50 AM50 °FPartly sunny.No wind94%30.21 "HgN/A
8:20 AM48 °FBroken clouds.No wind94%30.18 "HgN/A
7:50 AM46 °FBroken clouds.No wind93%30.18 "HgN/A
7:20 AM45 °FScattered clouds.No wind93%30.18 "Hg4 mi
6:50 AM43 °FScattered clouds.No wind93%30.18 "Hg4 mi
6:20 AM43 °FPassing clouds.No wind93%30.18 "Hg4 mi
5:50 AM45 °FPassing clouds.No wind93%30.15 "Hg4 mi
5:20 AM45 °FPassing clouds.2 mph93%30.15 "HgN/A
4:50 AM45 °FPassing clouds.No wind93%30.15 "HgN/A
4:20 AM46 °FPassing clouds.3 mph93%30.15 "HgN/A
Weather by CustomWeather, © 2016

See weather overviewHow to use our weather pages